KK4OHF Weather Reports


time (UTC)temp
F
wind
direction
speed
knots
gust
knots
rain 1hr
in
rain 24hr
in
rain mn
in
humidity
%
barometer
mb
20260508115505 49 290 0.0 0.0 0.00 0.06 0.00 93 1015.9
20260508115005 48 290 0.0 0.0 0.00 0.07 0.00 93 1015.9
20260508114504 48 290 0.0 0.0 0.00 0.07 0.00 92 1015.9
20260508114006 48 290 0.0 0.0 0.00 0.07 0.00 92 1015.9
20260508113504 48 290 0.0 0.0 0.00 0.07 0.00 92 1015.9
20260508113006 48 290 0.0 0.0 0.00 0.07 0.00 92 1015.9
20260508112505 48 290 0.0 0.0 0.00 0.07 0.00 92 1015.9
20260508112005 48 290 0.0 0.0 0.00 0.07 0.00 92 1014.2
20260508111505 48 290 0.0 0.0 0.00 0.07 0.00 92 1014.2
20260508111005 48 290 0.0 0.0 0.00 0.07 0.00 92 1014.2
20260508110505 48 290 0.0 0.0 0.00 0.07 0.00 92 1014.2
20260508105505 48 290 0.0 0.0 0.00 0.07 0.00 92 1014.2
20260508105005 48 290 0.0 0.0 0.00 0.07 0.00 92 1014.2
20260508104504 48 290 0.0 0.0 0.00 0.08 0.00 92 1014.2
20260508103505 49 290 0.0 0.0 0.00 0.08 0.00 92 1014.2
20260508102505 49 290 0.0 0.0 0.00 0.08 0.00 92 1014.2
20260508102005 49 290 0.0 0.0 0.00 0.08 0.00 92 1014.2
20260508101505 49 290 0.0 0.0 0.00 0.08 0.00 92 1014.2
20260508101005 49 290 0.0 0.0 0.00 0.09 0.00 92 1014.2
20260508100505 49 290 0.0 0.0 0.00 0.10 0.00 92 1014.2
20260508100005 49 290 0.0 0.0 0.00 0.10 0.00 92 1014.2
20260508095506 49 290 0.0 0.0 0.00 0.10 0.00 92 1014.2
20260508095005 49 290 0.0 0.0 0.00 0.10 0.00 92 1014.2
20260508094505 50 290 0.0 0.0 0.00 0.10 0.00 92 1014.2
20260508093505 50 290 0.0 0.0 0.00 0.10 0.00 92 1014.2
20260508093006 50 290 0.0 0.0 0.00 0.10 0.00 92 1014.2
20260508092505 50 290 0.0 0.0 0.00 0.10 0.00 92 1014.2
20260508092005 50 290 0.0 0.0 0.00 0.10 0.00 92 1014.2
20260508091506 50 290 0.0 0.0 0.00 0.10 0.00 92 1014.2
20260508091006 51 290 0.0 0.0 0.00 0.10 0.00 92 1014.2
20260508090505 51 290 0.0 0.0 0.00 0.10 0.00 92 1014.2
20260508090005 51 290 0.0 0.0 0.00 0.10 0.00 92 1014.2
20260508085505 51 290 0.0 0.0 0.00 0.10 0.00 92 1014.2
20260508085006 51 290 0.0 0.0 0.00 0.10 0.00 92 1014.2
20260508084505 51 290 0.0 0.0 0.00 0.10 0.00 92 1014.2
20260508084005 51 290 0.0 0.0 0.00 0.10 0.00 92 1014.2
20260508083506 52 290 0.0 0.0 0.00 0.11 0.00 92 1014.2
20260508083006 52 290 0.0 0.0 0.00 0.11 0.00 92 1013.8
20260508082506 52 290 0.0 0.0 0.00 0.13 0.00 92 1013.8
20260508082005 52 290 0.0 0.0 0.00 0.14 0.00 91 1013.8
20260508081505 52 290 0.0 0.0 0.00 0.16 0.00 91 1013.8
20260508081006 52 290 0.0 0.0 0.00 0.17 0.00 92 1013.8
20260508080505 52 290 0.0 0.0 0.00 0.19 0.00 92 1013.8
20260508080005 52 290 0.0 0.0 0.00 0.20 0.00 91 1013.8
20260508075505 52 290 0.0 0.0 0.00 0.23 0.00 91 1013.8
20260508075006 53 290 0.0 0.0 0.00 0.24 0.00 91 1013.8
20260508074505 53 290 0.0 0.0 0.00 0.25 0.00 91 1013.8
20260508074005 53 290 0.0 0.0 0.00 0.26 0.00 91 1013.8
20260508073505 53 290 0.0 0.0 0.00 0.28 0.00 91 1013.8
20260508073005 53 290 0.0 0.0 0.00 0.29 0.00 91 1013.8
20260508072005 53 290 0.0 0.0 0.00 0.32 0.00 91 1013.8
20260508071504 53 290 0.0 0.0 0.00 0.33 0.00 91 1013.8
20260508071006 53 290 0.0 0.0 0.00 0.35 0.00 91 1014.5
20260508070505 53 290 0.0 0.0 0.00 0.37 0.00 91 1014.5
20260508070005 53 290 0.0 0.0 0.00 0.38 0.00 91 1014.5
20260508065006 54 290 0.0 0.0 0.00 0.49 0.00 91 1014.5
20260508064505 54 290 0.0 0.0 0.00 0.53 0.00 91 1014.5
20260508064005 54 290 0.0 0.0 0.00 0.53 0.00 91 1014.5
20260508063506 54 290 0.0 0.0 0.00 0.54 0.00 91 1014.5
20260508063007 54 290 0.0 0.0 0.00 0.54 0.00 91 1014.5
20260508062505 54 290 0.0 0.0 0.00 0.55 0.00 91 1014.5
20260508061505 54 290 0.0 0.0 0.00 0.55 0.00 91 1014.5
20260508061007 54 290 0.0 0.0 0.00 0.55 0.00 91 1014.6
20260508060506 54 290 0.0 0.0 0.00 0.55 0.00 91 1014.6
20260508060005 54 290 0.0 0.0 0.00 0.55 0.00 91 1014.6
20260508055504 55 290 0.0 0.0 0.00 0.55 0.00 91 1014.6
20260508055005 55 290 0.0 0.0 0.00 0.55 0.00 91 1014.6
20260508054505 55 290 0.0 0.0 0.00 0.56 0.00 91 1014.6
20260508054005 55 290 0.0 0.0 0.00 0.56 0.00 91 1014.6
20260508053005 55 290 0.0 0.0 0.00 0.57 0.00 91 1011.9
20260508052505 55 290 0.0 0.0 0.00 0.59 0.00 91 1011.9
20260508052006 55 290 0.0 0.0 0.00 0.62 0.00 91 1011.9
20260508051505 55 290 0.0 0.0 0.00 0.62 0.00 91 1011.9
20260508051005 55 290 0.0 1.7 0.00 0.62 0.00 91 1011.9
20260508050505 55 290 0.0 1.7 0.00 0.62 0.00 90 1011.9
20260508050005 55 290 0.0 0.0 0.00 0.62 0.00 90 1011.9
20260508045505 56 290 0.0 0.0 0.00 0.62 0.00 90 1011.9
20260508044505 56 290 0.0 0.0 0.00 0.62 0.00 90 1011.9
20260508044005 56 290 0.0 0.0 0.00 0.62 0.00 90 1011.9
20260508043006 56 290 0.0 0.0 0.00 0.63 0.00 90 1011.9
20260508042505 56 290 0.0 0.0 0.00 0.63 0.00 90 1011.9
20260508041505 57 290 0.0 0.0 0.00 0.63 0.00 90 1011.9
20260508041005 57 290 0.0 0.0 0.00 0.63 0.00 90 1011.9
20260508040005 57 290 0.0 0.0 0.00 0.63 0.00 90 1011.9
20260508034505 57 290 0.0 0.0 0.00 0.63 0.54 89 1011.9
20260508034005 57 290 0.0 0.0 0.00 0.63 0.54 89 1011.9
20260508032505 58 290 0.0 0.0 0.00 0.63 0.54 89 1011.9
20260508032005 58 290 0.0 0.0 0.00 0.63 0.54 89 1011.9
20260508031505 58 290 0.0 0.0 0.00 0.63 0.54 88 1011.9
20260508031005 58 290 0.0 0.0 0.00 0.63 0.54 88 1011.9
20260508030506 59 290 0.0 0.0 0.00 0.63 0.54 88 1011.9
20260508030005 59 290 0.0 0.0 0.00 0.63 0.54 88 1011.9
20260508025505 59 290 0.0 0.0 0.00 0.63 0.54 88 1011.9
20260508024005 59 290 0.0 0.0 0.00 0.64 0.54 87 1011.9
20260508023505 60 290 0.0 0.0 0.00 0.64 0.54 87 1011.9
20260508023006 60 290 0.0 0.0 0.00 0.64 0.54 87 1011.9
20260508022505 60 290 0.0 0.0 0.00 0.64 0.54 87 1011.9
20260508021005 61 290 0.0 0.0 0.00 0.66 0.54 86 1011.9
20260508020005 61 290 0.0 0.0 0.00 0.66 0.54 85 1011.9
20260508015506 61 290 0.0 0.0 0.00 0.66 0.54 85 1011.9
20260508015006 61 290 0.0 0.9 0.00 0.66 0.54 85 1011.9
20260508014504 62 290 0.0 0.0 0.00 0.66 0.54 84 1011.9
20260508013505 62 290 0.0 0.0 0.00 0.66 0.54 84 1011.9
20260508013006 62 290 0.0 0.9 0.00 0.66 0.54 84 1011.9
20260508012505 62 290 0.0 0.9 0.00 0.66 0.54 83 1011.9
20260508012006 62 290 0.0 1.7 0.00 0.66 0.54 83 1011.9
20260508011505 63 290 0.0 0.9 0.00 0.67 0.54 83 1011.9
20260508011005 63 290 0.0 0.9 0.00 0.70 0.54 83 1011.9
20260508010506 63 290 0.0 0.0 0.00 0.78 0.54 83 1011.9
20260508010007 63 290 0.0 0.9 0.00 0.78 0.54 82 1011.9
20260508005506 63 290 0.0 0.0 0.00 0.78 0.54 82 1011.9
20260508005005 63 290 0.0 0.0 0.00 0.78 0.54 82 1011.9
20260508004005 63 290 0.0 0.9 0.00 0.78 0.54 81 1011.9
20260508003505 64 290 0.0 1.7 0.00 0.78 0.54 80 1011.9
20260508003006 64 290 0.0 2.6 0.00 0.78 0.54 79 1011.9
20260508002505 64 296 0.9 1.7 0.00 0.78 0.54 79 1011.9
20260508002005 64 288 0.9 1.7 0.00 0.78 0.54 78 1011.9
20260508001505 65 297 0.9 4.3 0.00 0.78 0.54 77 1011.9
20260508001006 65 288 0.9 2.6 0.00 0.78 0.54 77 1011.9
20260508000506 65 286 1.7 4.3 0.00 0.78 0.54 76 1011.9
20260508000005 65 251 0.9 5.2 0.00 0.78 0.54 76 1011.9
20260507235007 66 274 2.6 5.2 0.00 0.78 0.54 74 1011.9
20260507234506 66 303 1.7 5.2 0.00 0.78 0.54 74 1011.9
20260507233505 66 311 1.7 5.2 0.00 0.78 0.54 74 1011.9
20260507233006 66 273 2.6 5.2 0.00 0.78 0.54 74 1011.9
20260507232506 66 298 1.7 7.0 0.00 0.78 0.54 74 1011.9
20260507232006 66 320 2.6 7.0 0.00 0.78 0.54 74 1011.9
20260507231004 67 290 2.6 7.8 0.00 0.78 0.54 73 1011.9
20260507230506 67 288 2.6 7.8 0.00 0.78 0.54 73 1011.9
20260507230005 67 284 2.6 8.7 0.00 0.78 0.54 74 1011.9
20260507225505 67 293 2.6 10.4 0.00 0.78 0.54 74 1011.9
20260507225006 67 321 1.7 10.4 0.00 0.78 0.54 75 1011.9
20260507224505 67 297 2.6 7.0 0.00 0.78 0.54 74 1011.9
20260507224006 67 277 1.7 5.2 0.00 0.78 0.54 74 1011.9
20260507223506 67 273 2.6 7.0 0.00 0.78 0.54 74 1011.9
20260507223006 68 286 2.6 10.4 0.00 0.78 0.54 74 1011.9
20260507222505 68 298 0.9 6.1 0.00 0.78 0.54 76 1011.9
20260507221505 68 297 1.7 7.0 0.00 0.78 0.54 76 1011.9
20260507221005 68 13 4.3 8.7 0.00 0.78 0.54 75 1011.9
20260507220505 68 346 3.5 7.0 0.00 0.78 0.54 75 1011.9
20260507220005 68 296 1.7 10.4 0.00 0.78 0.54 76 1011.9
20260507215506 68 307 2.6 10.4 0.00 0.78 0.54 77 1011.9
20260507215005 68 275 2.6 8.7 0.00 0.78 0.54 77 1011.9
20260507214506 68 298 4.3 8.7 0.00 0.78 0.54 77 1011.9
20260507214006 69 313 2.6 7.0 0.00 0.78 0.54 76 1011.9
20260507212504 68 242 3.5 8.7 0.00 0.78 0.54 77 1011.9
20260507211505 67 271 2.6 6.1 0.00 0.78 0.54 80 1011.9
20260507211005 67 343 2.6 7.0 0.00 0.78 0.54 79 1011.9
20260507210505 67 281 0.9 6.1 0.00 0.78 0.54 79 1011.9
20260507205504 67 310 1.7 5.2 0.00 0.78 0.54 81 1011.9
20260507205006 67 297 3.5 7.0 0.00 0.78 0.54 80 1011.9
20260507204505 67 283 2.6 6.1 0.00 0.78 0.54 81 1011.9
20260507204005 67 284 2.6 5.2 0.00 0.78 0.54 82 1011.9
20260507203506 66 26 2.6 4.3 0.00 0.78 0.54 82 1011.9
20260507203005 67 345 1.7 4.3 0.00 0.78 0.54 82 1012.0
20260507202505 67 335 1.7 6.1 0.00 0.78 0.54 82 1012.0
20260507202006 67 295 2.6 7.0 0.00 0.78 0.54 81 1012.0
20260507201505 67 273 2.6 6.1 0.00 0.78 0.54 82 1012.0
20260507201006 66 327 0.9 2.6 0.00 0.78 0.54 84 1012.0
20260507200505 66 18 0.0 2.6 0.00 0.78 0.54 85 1012.0
20260507200005 65 284 0.0 6.1 0.00 0.78 0.54 86 1012.0
20260507195504 65 319 2.6 6.1 0.00 0.78 0.54 85 1012.0
20260507195006 65 11 0.0 2.6 0.00 0.78 0.54 87 1012.0
20260507194005 65 289 3.5 7.8 0.00 0.78 0.54 86 1012.0
20260507193505 65 309 2.6 7.8 0.00 0.78 0.54 86 1012.0
20260507193005 64 289 1.7 6.1 0.00 0.78 0.54 86 1012.0
20260507192504 64 298 2.6 7.0 0.00 0.78 0.54 86 1012.0
20260507192005 65 269 1.7 5.2 0.00 0.78 0.54 88 1012.0
20260507191005 64 358 1.7 4.3 0.00 0.78 0.54 89 1012.0
20260507190505 64 332 1.7 4.3 0.00 0.78 0.54 89 1012.0
20260507185505 63 331 2.6 6.1 0.00 0.78 0.54 89 1012.0
20260507185005 63 311 2.6 8.7 0.00 0.78 0.54 88 1012.0
20260507184505 64 325 2.6 8.7 0.00 0.78 0.54 88 1012.0
20260507184005 64 353 1.7 4.3 0.00 0.78 0.54 88 1012.0
20260507183005 66 28 0.9 2.6 0.00 0.78 0.54 86 1012.0
20260507182505 66 334 1.7 6.1 0.00 0.78 0.54 86 1012.0
20260507182004 66 330 0.9 2.6 0.00 0.78 0.54 86 1012.0
20260507181504 66 314 0.9 4.3 0.00 0.78 0.54 86 1012.0
20260507181005 66 8 0.9 4.3 0.00 0.78 0.54 87 1012.0
20260507180505 65 337 1.7 4.3 0.00 0.78 0.54 87 1012.0
20260507180006 65 36 1.7 4.3 0.00 0.78 0.54 88 1011.8
20260507175506 65 304 1.7 5.2 0.00 0.78 0.54 88 1011.8
20260507175005 65 296 1.7 5.2 0.00 0.78 0.54 88 1011.8
20260507174505 65 3 2.6 7.0 0.00 0.78 0.54 88 1011.8
20260507174005 66 355 0.9 5.2 0.00 0.78 0.54 87 1011.8
20260507173006 67 300 1.7 7.8 0.00 0.78 0.54 86 1011.8
20260507172505 67 304 2.6 6.1 0.00 0.78 0.54 86 1011.8
20260507172005 67 296 1.7 7.8 0.00 0.78 0.54 86 1011.8
20260507171505 67 275 1.7 6.1 0.00 0.78 0.54 86 1011.8
20260507171005 67 295 2.6 5.2 0.00 0.78 0.54 86 1011.8
20260507170005 68 313 0.9 6.1 0.00 0.78 0.54 85 1011.8
20260507165506 68 299 2.6 6.1 0.00 0.78 0.54 85 1011.8
20260507165005 69 332 0.9 6.1 0.00 0.78 0.54 86 1011.7
20260507164505 69 291 0.9 6.1 0.00 0.78 0.54 86 1011.7
20260507164005 68 301 2.6 7.0 0.00 0.78 0.54 86 1011.7
20260507163505 69 22 0.9 2.6 0.00 0.78 0.54 85 1011.7
20260507162505 69 276 2.6 6.1 0.00 0.78 0.54 83 1011.0
20260507162005 69 263 1.7 5.2 0.00 0.78 0.54 85 1011.0
20260507161505 68 310 1.7 5.2 0.00 0.78 0.54 85 1011.0
20260507161005 68 291 2.6 6.1 0.00 0.78 0.54 86 1011.0
20260507160505 68 297 1.7 5.2 0.00 0.78 0.54 86 1011.0
20260507160005 68 286 0.9 6.1 0.00 0.78 0.54 86 1011.0
20260507155505 68 309 1.7 6.1 0.00 0.78 0.54 86 1011.0
20260507155005 68 296 4.3 7.0 0.00 0.78 0.54 85 1011.0
20260507154505 68 19 1.7 5.2 0.00 0.78 0.54 86 1011.0
20260507153006 69 298 3.5 6.1 0.00 0.78 0.54 85 1011.0
20260507152505 69 276 1.7 7.0 0.00 0.78 0.54 87 1011.0
20260507152005 68 302 1.7 7.0 0.00 0.78 0.54 89 1011.0
20260507151505 68 275 1.7 5.2 0.00 0.78 0.54 88 1011.0
20260507151006 68 345 1.7 2.6 0.00 0.78 0.54 87 1011.0
20260507150506 69 278 1.7 2.6 0.00 0.78 0.54 88 1011.0
20260507150006 69 7 1.7 4.3 0.00 0.78 0.54 90 1011.5
20260507145504 69 291 0.9 4.3 0.00 0.78 0.54 90 1011.5
20260507145005 68 269 1.7 5.2 0.00 0.78 0.54 90 1011.5
20260507144504 68 26 0.9 2.6 0.00 0.78 0.54 92 1011.5
20260507143005 66 297 0.9 4.3 0.00 0.78 0.54 93 1011.5
20260507142505 66 295 0.9 4.3 0.00 0.78 0.54 93 1011.5
20260507141505 66 262 0.9 2.6 0.00 0.78 0.54 94 1011.0
20260507141007 66 291 0.0 1.7 0.00 0.78 0.54 94 1011.0
20260507140505 65 21 0.0 0.9 0.00 0.78 0.54 94 1011.0
20260507135505 64 262 0.9 1.7 0.01 0.78 0.54 94 1011.0
20260507135005 64 284 0.9 2.6 0.01 0.78 0.54 94 1011.0
20260507134506 64 355 0.0 0.9 0.01 0.78 0.54 94 1011.0
20260507134006 64 355 0.9 1.7 0.01 0.78 0.54 94 1011.0
20260507133505 64 285 0.0 0.9 0.01 0.78 0.54 94 1011.0
20260507132504 64 280 0.0 0.9 0.01 0.78 0.54 94 1011.0
20260507132006 64 280 0.0 2.6 0.01 0.78 0.54 94 1011.0
20260507131505 64 287 0.0 2.6 0.01 0.78 0.54 94 1011.0
20260507130504 64 79 0.0 0.9 0.02 0.78 0.54 94 1010.7
20260507130005 64 79 0.0 1.7 0.02 0.78 0.54 94 1010.7
20260507125005 63 296 1.7 2.6 0.01 0.77 0.53 94 1010.7
20260507124504 63 27 1.7 2.6 0.02 0.77 0.53 94 1010.7
20260507123505 63 7 0.9 1.7 0.02 0.77 0.53 94 1010.7
20260507123005 63 37 0.9 1.7 0.02 0.77 0.53 94 1010.7
20260507122005 63 47 0.0 0.9 0.02 0.77 0.53 94 1010.7
20260507121006 63 15 1.7 6.1 0.04 0.77 0.53 94 1010.7
20260507120006 63 325 0.9 2.6 0.03 0.76 0.52 94 1009.4